NABEO-1 & KICK STAGE (43692 NORAD) Tracking and Keplerian Element Data

This shows tracking and keplerian element data for the satellite.

Feedback or suggestion? Click here.




ElementValue
Catalog43692
NameNABEO-1 & KICK STAGE
Epoch Orbit26681
Epoch Day238.90251348
Epoch Year2023
RAAN18.4295
Inclination85.02
Eccentricity0.0006973
Argument of Perigee280.5699
Mean Anonmoly79.4778
Mean Motion15.61429497
Decay Rate0.00103837
L11 43692U 18088C 23238.90251348 .00103837 00000+0 12037-2 0 9995
L22 43692 85.0200 18.4295 0006973 280.5699 79.4778 15.61429497266817



Live tracking and technical data element details for NABEO-1 & KICK STAGE (NORAD 43692). NABEO-1 & KICK STAGE can be tracked NOW for your location showing map with azimuth and elevation plus other details from your city location.







IsCatalogInMostPopularTable: catalog: 43692, numindb: 335
Update: records affected: 1



GetName: 43692 NABEO-1 & KICK STAGE

Hit Count: updated at: Sat, 17 May 2025 09:41:04 GMT